User: anonymous   Login
Location: Baller�as
(41.9020°N, 0.1554°W)
Time: 18:14:26
(UTC+00:00)
Language:

Cosmos 2278 - Orbit

View from above orbital plane
View from above orbital plane
View from above satellite
View from above satellite

Ground track
Ground track

The orbit data is extracted from the following two-line orbital elements,

1 23087U 94023A   20296.17756081  .00000156  00000-0  10710-3 0  9996
2 23087  71.0544 322.7785 0007804 161.9720 198.1680 14.13818326367356
Epoch (UTC): 22 October 2020 04:15:41
Eccentricity: 0.0007804
inclination: 71.0544°
perigee height: 841 km
apogee height: 852 km
right ascension of ascending node: 322.7785°
argument of perigee: 161.9720°
revolutions per day: 14.13818326
mean anomaly at epoch: 198.1680°
orbit number at epoch: 36735

The dashed part of the orbit path shows where the satellite is in the earth's shadow,  

DLR